Weather Service Report


800 
ASUS44 KMEG 190310
RWRTN 
TENNESSEE HOURLY STATE WEATHER ROUNDUP
NATIONAL WEATHER SERVICE MEMPHIS TN
900 PM CST THU DEC 18 2014

TNZ002-004-019-021-049-052-054-088>092-190400-
WEST TENNESSEE
  
CITY           SKY/WX    TMP DP  RH WIND       PRES   REMARKS
MEMPHIS INTL   CLOUDY    45  36  70 NE6       30.23S                  
NWS MEMPHIS      N/A     43 N/A N/A MISG        N/A                   
JACKSON        CLOUDY    41  35  79 CALM      30.24R                  
DYERSBURG      CLOUDY    39  27  60 E5        30.26R                  
UNION CITY     CLOUDY    36  32  87 NE5       30.24R WCI  32          
PARIS          CLOUDY    34  28  80 NE5       30.24S WCI  30          
HUNTINGDON     CLOUDY    35  31  86 NE3       30.24S                  
LEXINGTON      CLOUDY    37  34  87 CALM      30.22R                  
SAVANNAH       CLOUDY    41  36  81 CALM      30.23S                  
$$

TNZ008-025-027-028-033-062-065-066-190400-
NORTH MIDDLE TENNESSEE
  
CITY           SKY/WX    TMP DP  RH WIND       PRES   REMARKS
NASHVILLE      CLOUDY    37  32  82 N5        30.24S WCI  33          
CLARKSVILLE    CLOUDY    35  30  82 N3        30.24S                  
SMYRNA         CLOUDY    37  32  82 CALM      30.25S                  
COOKEVILLE     PTCLDY    36  32  87 CALM      30.19R                  
CROSSVILLE     CLOUDY    37  30  75 NW3       30.17S                  
$$

TNZ061-075-076-078-094-096-097-190400-
SOUTH MIDDLE TENNESSEE
  
CITY           SKY/WX    TMP DP  RH WIND       PRES   REMARKS
FAYETTEVILLE   CLEAR     36  32  87 N6        30.19S WCI  31          
TULLAHOMA      CLEAR     32  30  93 CALM      30.20R                  
WINCHESTER     MOCLDY    37  36  93 CALM      30.20R                  
MCMINNVILLE    CLOUDY    37  34  87 CALM      30.19S                  
SHELBYVILLE    PTCLDY    34  34 100 CALM      30.23R                  
$$

TNZ017-018-042-046-047-190400-
NORTHEAST TENNESSEE
  
CITY           SKY/WX    TMP DP  RH WIND       PRES   REMARKS
TRI CITIES     CLOUDY    39  33  79 CALM      30.14R                  
ELIZABETHTON   CLOUDY    37  30  75 CALM      30.13S                  
$$

TNZ012-013-036-069-073-074-190400-
CENTRAL EAST TENNESSEE
  
CITY           SKY/WX    TMP DP  RH WIND       PRES   REMARKS
KNOXVILLE      CLOUDY    42  32  67 CALM      30.16F                  
OAK RIDGE      CLOUDY    42  28  57 CALM      30.19S                  
GATLINBURG     CLOUDY    41  30  65 CALM      30.16S                  
MORRISTOWN     CLOUDY    41  30  65 NW3       30.16R                  
$$

TNZ083-085-099-190400-
SOUTHEAST TENNESSEE
  
CITY           SKY/WX    TMP DP  RH WIND       PRES   REMARKS
CHATTANOOGA    CLOUDY    45  36  70 N5        30.19S                  
$$

SKY/WX REPORTED AS FAIR MEANS FEW OR NO CLOUDS BELOW
12 THOUSAND FEET.



804 
ASUS44 KMEG 190310
RWRMEG
MEMPHIS CWA HOURLY WEATHER ROUNDUP
NATIONAL WEATHER SERVICE MEMPHIS TN
900 PM CST THU DEC 18 2014

...WEST TENNESSEE...
  
CITY           SKY/WX    TMP DP  RH WIND       PRES   REMARKS
MEMPHIS INTL   CLOUDY    45  36  70 NE6       30.23S                  
NWS MEMPHIS      N/A     43 N/A N/A MISG        N/A                   
JACKSON        CLOUDY    41  35  79 CALM      30.24R                  
LEXINGTON      CLOUDY    37  34  87 CALM      30.22R                  
SAVANNAH       CLOUDY    41  36  81 CALM      30.23S                  
DYERSBURG      CLOUDY    39  27  60 E5        30.26R                  
UNION CITY     CLOUDY    36  32  87 NE5       30.24R WCI  32          
PARIS          CLOUDY    34  28  80 NE5       30.24S WCI  30          
HUNTINGDON     CLOUDY    35  31  86 NE3       30.24S                  


...EASTERN ARKANSAS...
  
CITY           SKY/WX    TMP DP  RH WIND       PRES   REMARKS
JONESBORO      CLOUDY    41  37  86 NE6       30.24S                  
WEST MEMPHIS   CLOUDY    43  40  89 N5        30.24R                  
BATESVILLE     CLOUDY    39  36  87 CALM      30.25R                  
NEWPORT        LGT RAIN  41  39  92 NE5       30.26R FOG              
WALNUT RIDGE   CLOUDY    39  34  81 NE7       30.25S WCI  34          
BLYTHEVILLE    CLOUDY    41  37  86 E5        30.25R                  
SEARCY         CLOUDY    41  39  93 NE6       30.26R FOG              
STUTTGART        N/A     43  39  87 N6        30.24S                  
PINE BLUFF     CLOUDY    43  40  89 N9        30.23R                  
MONTICELLO     CLOUDY    46  42  86 NE5       30.20S                  


...NORTH MISSISSIPPI...
  
CITY           SKY/WX    TMP DP  RH WIND       PRES   REMARKS
TUPELO         CLOUDY    45  38  76 NE7       30.21S                  
OXFORD         CLOUDY    41  37  87 NE3       30.23R                  
OLIVE BRANCH   CLOUDY    43  39  87 NE3       30.23R                  
TUNICA         CLOUDY    43  39  87 N6        30.25R                  
CLARKSDALE     CLOUDY    45  41  87 N8        30.24R                  
CORINTH        CLOUDY    45  37  76 NE5       30.22R                  
GRENADA        CLOUDY    45  39  81 CALM      30.22R                  
GREENWOOD      CLOUDY    49  40  71 NE5       30.20R                  
STARKVILLE     CLOUDY    46  37  71 N7        30.20S                  
GOLDEN TRIANGL PTCLDY    43  36  75 N6        30.19F                  


...SOUTHEAST MISSOURI...
  
CITY           SKY/WX    TMP DP  RH WIND       PRES   REMARKS
WEST PLAINS    FOG       36  35  96 E3        30.22S VSB 1/2          
POPLAR BLUFF   CLOUDY    37  32  82 NE3       30.25S                  
CAPE GIRARDEAU CLOUDY    36  33  89 CALM      30.27R                  


...NORTHWEST ALABAMA...
  
CITY           SKY/WX    TMP DP  RH WIND       PRES   REMARKS
MUSCLE SHOALS  CLOUDY    45  35  68 CALM      30.23R                  


...MIDDLE TENNESSEE...
  
CITY           SKY/WX    TMP DP  RH WIND       PRES   REMARKS
NASHVILLE      CLOUDY    37  32  82 N5        30.24S WCI  33          
CLARKSVILLE    CLOUDY    35  30  82 N3        30.24S                  


...WESTERN KENTUCKY...
  
CITY           SKY/WX    TMP DP  RH WIND       PRES   REMARKS
PADUCAH        CLOUDY    36  31  82 NE5       30.26R WCI  32          
FORT CAMPBELL  CLOUDY    34  29  82 N3        30.24S                  


...CENTRAL ARKANSAS...
  
CITY           SKY/WX    TMP DP  RH WIND       PRES   REMARKS
LITTLE ROCK    CLOUDY    43  38  82 N5        30.25R FOG              


SKY/WX REPORTED AS FAIR MEANS FEW OR NO CLOUDS BELOW
12 THOUSAND FEET.


Return to Home page


Western Regional Climate Center, wrcc@dri.edu